Content
SEND FEEDBACK

Daily
Averages
Monthly
Summary
Switzerland

PAYERNE, SWITZERLAND


Home > Europe > Switzerland
Elevation: 1463 feet     Latitude: 46 50N     Longitude: 006 55E

WEATHER
 
SELECT A DAY
Number of Records: 87,086;   Date Range: 12/15/98 - 9/16/14
 
SHARE

PRINT THIS DATA

[ ← Previous Day ]
WEATHER ALMANAC - MARCH 19, 2013
[ Next Day → ]
[ °C ]   °F
Weather ElementAverageHighLow
Temperature32.4 °F37.4 °F (2:50 pm)28.4 °F (11:50 pm)
Dewpoint27.5 °F30.2 °F (12:50 am)23 °F (11:50 pm)
Humidity83 %100 % (12:50 am)65 % (1:20 pm)
Barometer29.54 in29.59 in (9:50 am)29.42 in (12:50 am)
Wind Speed8.4 mph15 mph (2:20 am)
Wind Gust28.8 mph (3:20 am)
Weather ElementAverage
Visibility5.1 mi
Wind DirectionSSW (214.3 °)

Weather ElementTotal
Precipitation---
Heating Degree Days32.1 (Base 65)
Averaged from 47 records on March 19, 2013
WEATHER CONDITIONS BREAKOUT
WIND DIRECTION BREAKOUT
WEATHER BY HOUR - MARCH 19, 2013
[ °C ]   °F
Local TimeTemperatureDewpointHumidityBarometerVisibilityWind DirectionWind SpeedGust SpeedPrecipitationEventsConditions
12:50 AM30.2 °F30.2 °F100 %29.42 in2.5 miSW (230°)8.1 mphSnowLight Snow
1:20 AM30.2 °F30.2 °F100 %29.42 in6.2 miWSW (240°)12.7 mphSnowLight Snow
1:50 AM30.2 °F30.2 °F100 %29.42 in0.6 miWSW (240°)10.4 mphSnowSnow
2:20 AM30.2 °F28.4 °F93 %29.42 in0.2 miWSW (240°)15.0 mphSnowHeavy Snow
2:50 AM30.2 °F30.2 °F100 %29.44 in5.0 miWSW (240°)11.5 mphSnowLight Snow
3:20 AM30.2 °F30.2 °F100 %29.44 in6.2 miWSW (240°)12.7 mph28.8 mphSnowLight Snow
3:50 AM30.2 °F28.4 °F93 %29.44 in6.2 miWSW (240°)11.5 mph24.2 mphSnowLight Snow
4:20 AM30.2 °F28.4 °F93 %29.47 in4.3 miWSW (240°)11.5 mphSnowLight Snow
4:50 AM30.2 °F28.4 °F93 %29.47 in6.2 miWSW (240°)9.2 mphScattered Clouds
5:20 AM30.2 °F28.4 °F93 %29.50 in1.8 miWSW (240°)8.1 mphSnowLight Snow
5:50 AM30.2 °F28.4 °F93 %29.50 in6.2 miWSW (250°)11.5 mphSnowLight Snow
6:20 AM30.2 °F28.4 °F93 %29.53 in6.2 miWSW (250°)8.1 mphSnowLight Snow
6:50 AM30.2 °F28.4 °F93 %29.53 in6.2 miWSW (250°)8.1 mphSnowLight Snow
7:20 AM30.2 °F28.4 °F93 %29.53 in6.2 miWSW (250°)9.2 mphSnowLight Snow
7:50 AM30.2 °F28.4 °F93 %29.53 in5.0 miSW (230°)6.9 mphSnowLight Snow
8:20 AM30.2 °F28.4 °F93 %29.56 in1.7 miSW (230°)9.2 mphSnowLight Snow
8:50 AM30.2 °F28.4 °F93 %29.56 in2.5 miSW (230°)9.2 mphSnowLight Snow
9:20 AM30.2 °F28.4 °F93 %29.56 in5.0 miWSW (240°)10.4 mphMostly Cloudy
9:50 AM32.0 °F28.4 °F87 %29.59 in6.2 miWSW (250°)11.5 mphMostly Cloudy
10:20 AM30.2 °F28.4 °F93 %29.59 in1.9 miSW (220°)8.1 mphSnowLight Snow
10:50 AM32.0 °F30.2 °F93 %29.59 in1.2 miSW (220°)9.2 mphSnowLight Snow
11:20 AM33.8 °F28.4 °F81 %29.59 in5.6 miWSW (240°)13.8 mphMostly Cloudy
11:50 AM33.8 °F30.2 °F87 %29.59 in6.2 miWSW (240°)11.5 mphMostly Cloudy
12:20 PM35.6 °F26.6 °F70 %29.59 in6.2 miSW (230°)11.5 mphMostly Cloudy
12:50 PM35.6 °F26.6 °F70 %29.59 in6.2 miSW (230°)12.7 mphMostly Cloudy
1:20 PM35.6 °F24.8 °F65 %29.59 in6.2 miSW (230°)12.7 mph24.2 mphScattered Clouds
1:50 PM35.6 °F24.8 °F65 %29.59 in6.2 miSW (230°)12.7 mphScattered Clouds
2:20 PM35.6 °F24.8 °F65 %29.59 in6.2 miWSW (240°)12.7 mphMostly Cloudy
2:50 PM37.4 °F26.6 °F65 %29.56 in6.2 miWSW (240°)9.2 mphScattered Clouds
3:20 PM37.4 °F26.6 °F65 %29.56 in6.2 miSW (230°)10.4 mphScattered Clouds
3:50 PM37.4 °F26.6 °F65 %29.56 in6.2 miSW (230°)10.4 mphScattered Clouds
4:20 PM37.4 °F26.6 °F65 %29.56 in6.2 miWSW (240°)10.4 mphScattered Clouds
4:50 PM37.4 °F26.6 °F65 %29.56 in6.2 miSW (220°)8.1 mphScattered Clouds
5:20 PM35.6 °F26.6 °F70 %29.56 in6.2 miSouth (190°)10.4 mphPartly Cloudy
5:50 PM35.6 °F26.6 °F70 %29.56 in6.2 miSW (220°)8.1 mphScattered Clouds
6:20 PM35.6 °F26.6 °F70 %29.56 in6.2 miWSW (240°)5.8 mphMostly Cloudy
6:50 PM33.8 °F26.6 °F75 %29.56 in6.2 miWSW (250°)3.5 mph
7:20 PM33.8 °F26.6 °F75 %29.56 in6.2 miVariable1.2 mph
7:50 PM32.0 °F26.6 °F80 %29.56 inWest (270°)1.2 mphClear
8:20 PM32.0 °F26.6 °F80 %29.56 inWest (270°)2.3 mphClear
8:50 PM32.0 °F24.8 °F75 %29.56 inVariable2.3 mphClear
9:20 PM30.2 °F26.6 °F86 %29.56 inWNW (290°)2.3 mphClear
9:50 PM30.2 °F26.6 °F86 %29.56 in6.2 miWest (280°)1.2 mph
10:20 PM30.2 °F26.6 °F86 %29.56 in6.2 miVariable2.3 mphMostly Cloudy
10:50 PM32.0 °F26.6 °F80 %29.56 in6.2 miVariable2.3 mph
11:20 PM30.2 °F24.8 °F80 %29.56 inWSW (250°)2.3 mphClear
11:50 PM28.4 °F23.0 °F80 %29.56 inVariable2.3 mphClear
Hourly data recorded from LSGC, located miles away from Payerne, Switzerland







STORIES FROM OUR PARTNERS